THOR ABLESTAR DEB, 544

Orbit data source: Space-Track

THOR ABLESTAR DEB, 544 is space debris in LEO originally from a launch on Thu, 29 Jun 1961 UTC launched from the Air Force Eastern Test Range (AFETR). Debris objects in space refer to the collection of defunct objects orbiting the Earth. Examples of debris include non-operational satellites, rocket bodies, and fragments generated from explosions, collisions, or faulty payload assembly.

Loading next visibility...
Identifier
544, 1961-015GD
Orbit
LEO
Country
Flag of USUS
Related business
Manufacturer
Unknown
Mission
Spacecraft
Bus & Motor
Unknown
Mass
Unknown
Launch date (UTC)
1961-06-29 (65 years ago)
Launch vehicle
Unknown
Launch site
Air Force Eastern Test Range (AFETR)
Object type
Payload
Rocket body
Debris
Shape & HBR
Unknown shape, 0.1 m
Radar Cross Section
Medium (>0.1 m² and <1 m²)

Expand to show TLE details & history
Last TLE update: 3 days ago

TLE from 3 days ago
0 THOR ABLESTAR DEB
1   544U 61015GD  26171.47191919  .00000261  00000-0  41747-3 0  9999
2   544  66.8724 212.3377 0192977 262.1765 205.0686 13.56218530202057
Epoch: 2026-06-20T11:19Z
TLE epoch observation values (Epoch: 2026-06-20T11:19:33.818Z)
Latitude
62.06007°
Longitude
-99.48784°
Altitude
1,189.601 km
Speed
7.201 km/s
True Right ascension
22h 36m 21s
True Declination
61° 55' 32"
Sunlit
Object was in daylight at epoch
Visualization orbit readout
Latitude
Unknown
Longitude
Unknown
Altitude
Unknown
Speed
Unknown
Apparent Right ascension
Unknown
Apparent Declination
Unknown
Sunlit
N/A
Visualization observer readout
Local Sidereal Time
12:27:57
Azimuth
Unknown
Elevation
Unknown
Doppler factor
Unknown
Orbital elements
Apogee altitude
1,191.183 km
Perigee altitude
904.573 km
Semi-major axis
7,426.015 km
Eccentricity
0.0193
Inclination
66.8724°
RAAN
212.3377°
Arg. of periapsis
262.1765°
True anomaly
204.15173°
Mean anomaly
205.0686°
Eccentric anomaly
204.60818°
Mean motion
3.39164 °/min
Orbital period
106.14 mins
BSTAR
0.00041747
Loading maneuver chart data...
Computing Atmospheric mass density...

Documentation

Showing up to 5 results
|